Location: Dal�� Lhota
(48.7500°N, 14.0167°E)
Time: 22:39:53
(UTC+00:00)

OBJECT-B - Pass Details

Date: 24 September 2020
Orbit: 421 x 433 km, 97.0° (Epoch: 09 October)

Event Time Altitude Azimuth Distance (km) Brightness Sun altitude
Exits shadow 17:55:36 12° 69° (ENE) 1,386 2.9 -10.5°
Maximum altitude 17:55:56 12° 63° (ENE) 1,379 2.9 -10.5°
Drops below altitude 10° 17:57:22 10° 37° (NE) 1,526 3.3 -10.7°
Sets 18:00:19 0° 6° (N) 2,402 4.7 -11.2°
